Location: ????????
(55.8351°N, 38.7040°E)
Time: 12:32:44
(UTC+00:00)

Cosmos 1975 - Pass Details

Date: 14 April 2024
Orbit: 514 x 533 km, 82.5° (Epoch: 24 May)

Event Time Altitude Azimuth Distance (km) Brightness Sun altitude
Rises 01:20:13 0° 344° (NNW) 2,650 6.5 -8.7°
Reaches altitude 10° 01:22:24 10° 339° (NNW) 1,759 5.5 -8.4°
Maximum altitude 01:26:06 48° 265° (W) 691 3.0 -8.0°
Drops below altitude 10° 01:29:48 10° 190° (S) 1,752 5.0 -7.5°
Sets 01:31:59 0° 185° (S) 2,638 6.0 -7.2°
